Weather History for Sacramento / Mc Clellan, CA

Change the Weather History Date:

Monday, October 14, 2013

  Actual Average (KMHR) Record (KMHR)
Temperature  
Mean Temperature 60 °F -  
Max Temperature 77 °F 75 °F 89 °F (2010)
Min Temperature 44 °F 47 °F 42 °F (2013)
Degree Days  
Heating Degree Days 4    
Growing Degree Days 10 (Base 50)    
Moisture  
Dew Point 36 °F    
Average Humidity 46    
Maximum Humidity 81    
Minimum Humidity 19    
Precipitation  
Precipitation 0.00 in - - ()
Sea Level Pressure  
Sea Level Pressure 30.07 in    
Wind  
Wind Speed 3 mph (NW)    
Max Wind Speed 10 mph    
Max Gust Speed -    
Visibility 10 miles    
Events      
Averages and records for this station are not official NWS values.
T = Trace of Precipitation, MM = Missing Value Source: NWS Daily Summary

Daily Weather History Graph

Daily Weather History Graph

Search for Another Location

Airport:

Trip Planner

Search our weather history database for the weather conditions in past years. The results will help you decide how hot, cold, wet, or windy it might be!

Date:

Astronomy

Oct. 14, 2013 Rise Set
Actual Time 7:14 AM PDT 6:28 PM PDT
Civil Twilight 6:47 AM PDT 6:54 PM PDT
Nautical Twilight 6:16 AM PDT 7:25 PM PDT
Astronomical Twilight 5:45 AM PDT 7:56 PM PDT
Moon 3:58 PM PDT (10/14) 2:39 AM PDT (10/14)
Length of Visible Light 12h 07m
Length of Day
11h 14m
Waxing Gibbous, 80% of the Moon is Illuminated
Oct 14
Waxing Gibbous
Oct 18
Full
Oct 26
Last Quarter
Nov 3
New
Nov 9
First Quarter

Hourly Weather History & Observations

Time (PDT) Temp. Windchill Dew Point Humidity Pressure Visibility Wind Dir Wind Speed Gust Speed Precip Events Conditions
12:10 AM 53.6 °F - 37.4 °F 54% 30.05 in 10.0 mi Calm Calm - N/A   Clear
12:30 AM 53.6 °F - 37.4 °F 54% 30.05 in 10.0 mi WNW 3.5 mph - N/A   Clear
12:50 AM 53.6 °F - 37.4 °F 54% 30.06 in 10.0 mi WNW 3.5 mph - N/A   Clear
1:10 AM 50.0 °F - 37.4 °F 62% 30.06 in 10.0 mi Calm Calm - N/A   Clear
1:30 AM 50.0 °F - 37.4 °F 62% 30.07 in 10.0 mi Calm Calm - N/A   Clear
1:50 AM 50.0 °F - 37.4 °F 62% 30.07 in 10.0 mi North 3.5 mph - N/A   Clear
2:10 AM 48.2 °F - 37.4 °F 66% 30.07 in 10.0 mi North 5.8 mph - N/A   Clear
2:30 AM 48.2 °F - 37.4 °F 66% 30.07 in 10.0 mi North 6.9 mph - N/A   Clear
2:50 AM 48.2 °F - 37.4 °F 66% 30.07 in 10.0 mi NNE 4.6 mph - N/A   Clear
3:10 AM 50.0 °F - 39.2 °F 66% 30.07 in 10.0 mi North 3.5 mph - N/A   Clear
3:30 AM 48.2 °F - 39.2 °F 71% 30.07 in 10.0 mi NW 3.5 mph - N/A   Clear
3:50 AM 48.2 °F - 37.4 °F 66% 30.07 in 10.0 mi NW 3.5 mph - N/A   Clear
4:10 AM 48.2 °F - 39.2 °F 71% 30.08 in 10.0 mi WNW 4.6 mph - N/A   Clear
4:30 AM 48.2 °F - 39.2 °F 71% 30.08 in 10.0 mi WNW 3.5 mph - N/A   Clear
4:50 AM 48.2 °F - 39.2 °F 71% 30.08 in 10.0 mi Calm Calm - N/A   Clear
5:10 AM 46.4 °F 45.2 °F 39.2 °F 76% 30.09 in 10.0 mi West 3.5 mph - N/A   Clear
5:30 AM 46.4 °F 45.2 °F 39.2 °F 76% 30.09 in 10.0 mi WNW 3.5 mph - N/A   Clear
5:50 AM 46.4 °F - 39.2 °F 76% 30.10 in 10.0 mi Calm Calm - N/A   Clear
6:10 AM 46.4 °F 45.2 °F 37.4 °F 71% 30.10 in 10.0 mi North 3.5 mph - N/A   Clear
6:30 AM 46.4 °F - 39.2 °F 76% 30.10 in 10.0 mi Calm Calm - N/A   Clear
6:50 AM 46.4 °F - 39.2 °F 76% 30.11 in 10.0 mi Calm Calm - N/A   Clear
7:10 AM 44.6 °F - 39.2 °F 81% 30.11 in 10.0 mi Calm Calm - N/A   Clear
7:30 AM 44.6 °F 43.1 °F 37.4 °F 76% 30.12 in 5.0 mi NW 3.5 mph - N/A   Haze
7:50 AM 46.4 °F 45.2 °F 37.4 °F 71% 30.13 in 8.0 mi NNW 3.5 mph - N/A   Clear
8:10 AM 48.2 °F - 39.2 °F 71% 30.13 in 9.0 mi Calm Calm - N/A   Clear
8:30 AM 50.0 °F - 39.2 °F 66% 30.14 in 10.0 mi Calm Calm - N/A   Clear
8:50 AM 51.8 °F - 41.0 °F 67% 30.14 in 10.0 mi North 4.6 mph - N/A   Clear
9:10 AM 55.4 °F - 41.0 °F 58% 30.14 in 10.0 mi North 3.5 mph - N/A   Clear
9:30 AM 57.2 °F - 39.2 °F 51% 30.14 in 10.0 mi North 3.5 mph - N/A   Clear
9:50 AM 59.0 °F - 39.2 °F 48% 30.14 in 10.0 mi Calm Calm - N/A   Clear
10:10 AM 60.8 °F - 41.0 °F 48% 30.14 in 10.0 mi Calm Calm - N/A   Clear
10:30 AM 62.6 °F - 39.2 °F 42% 30.14 in 9.0 mi Calm Calm - N/A   Clear
10:50 AM 62.6 °F - 39.2 °F 42% 30.14 in 10.0 mi North 3.5 mph - N/A   Clear
11:10 AM 64.4 °F - 37.4 °F 37% 30.14 in 10.0 mi Calm Calm - N/A   Clear
11:30 AM 66.2 °F - 39.2 °F 37% 30.13 in 10.0 mi WSW 3.5 mph - N/A   Clear
11:50 AM 66.2 °F - 37.4 °F 35% 30.13 in 10.0 mi SW 3.5 mph - N/A   Clear
12:10 PM 68.0 °F - 37.4 °F 33% 30.12 in 10.0 mi West 4.6 mph - N/A   Clear
12:30 PM 69.8 °F - 37.4 °F 31% 30.12 in 10.0 mi Calm Calm - N/A   Clear
12:50 PM 71.6 °F - 35.6 °F 27% 30.11 in 10.0 mi West 5.8 mph - N/A   Clear
1:10 PM 71.6 °F - 35.6 °F 27% 30.09 in 9.0 mi West 5.8 mph - N/A   Clear
1:30 PM 73.4 °F - 32.0 °F 22% 30.08 in 10.0 mi West 3.5 mph - N/A   Clear
1:50 PM 73.4 °F - 32.0 °F 22% 30.07 in 10.0 mi West 5.8 mph - N/A   Clear
2:10 PM 75.2 °F - 32.0 °F 21% 30.07 in 10.0 mi West 5.8 mph - N/A   Clear
2:30 PM 75.2 °F - 32.0 °F 21% 30.06 in 10.0 mi NW 5.8 mph - N/A   Clear
2:50 PM 75.2 °F - 32.0 °F 21% 30.05 in 9.0 mi NNW 8.1 mph - N/A   Clear
3:10 PM 75.2 °F - 32.0 °F 21% 30.05 in 9.0 mi NNW 8.1 mph - N/A   Clear
3:30 PM 77.0 °F - 32.0 °F 19% 30.04 in 9.0 mi North 8.1 mph - N/A   Clear
3:50 PM 75.2 °F - 32.0 °F 21% 30.03 in 10.0 mi NW 9.2 mph - N/A   Clear
4:10 PM 75.2 °F - 32.0 °F 21% 30.03 in 10.0 mi NNW 8.1 mph - N/A   Clear
4:30 PM 75.2 °F - 32.0 °F 21% 30.02 in 10.0 mi NW 9.2 mph - N/A   Clear
4:50 PM 75.2 °F - 32.0 °F 21% 30.01 in 9.0 mi NW 10.4 mph - N/A   Clear
5:10 PM 75.2 °F - 30.2 °F 19% 30.01 in 10.0 mi NW 6.9 mph - N/A   Clear
5:30 PM 75.2 °F - 30.2 °F 19% 30.01 in 10.0 mi NW 5.8 mph - N/A   Clear
5:50 PM 75.2 °F - 32.0 °F 21% 30.01 in 10.0 mi NNW 5.8 mph - N/A   Clear
6:10 PM 71.6 °F - 32.0 °F 23% 30.01 in 10.0 mi NNW 5.8 mph - N/A   Clear
6:30 PM 69.8 °F - 32.0 °F 25% 30.02 in 10.0 mi NNW 4.6 mph - N/A   Clear
6:50 PM 68.0 °F - 32.0 °F 26% 30.02 in 10.0 mi NNW 4.6 mph - N/A   Clear
7:10 PM 66.2 °F - 32.0 °F 28% 30.02 in 10.0 mi NNW 4.6 mph - N/A   Clear
7:30 PM 62.6 °F - 32.0 °F 32% 30.02 in 10.0 mi NNW 3.5 mph - N/A   Clear
7:50 PM 62.6 °F - 33.8 °F 34% 30.02 in 10.0 mi NNW 3.5 mph - N/A   Clear
8:10 PM 62.6 °F - 33.8 °F 34% 30.02 in 10.0 mi Calm Calm - N/A   Clear
8:30 PM 62.6 °F - 33.8 °F 34% 30.02 in 10.0 mi North 3.5 mph - N/A   Clear
8:50 PM 60.8 °F - 33.8 °F 36% 30.02 in 10.0 mi Calm Calm - N/A   Clear
9:10 PM 60.8 °F - 33.8 °F 36% 30.02 in 10.0 mi Calm Calm - N/A   Clear
9:30 PM 57.2 °F - 33.8 °F 41% 30.03 in 10.0 mi Calm Calm - N/A   Clear
9:50 PM 59.0 °F - 35.6 °F 42% 30.03 in 10.0 mi Calm Calm - N/A   Clear
10:10 PM 59.0 °F - 35.6 °F 42% 30.03 in 10.0 mi Calm Calm - N/A   Clear
10:30 PM 59.0 °F - 35.6 °F 42% 30.03 in 10.0 mi Calm Calm - N/A   Clear
10:50 PM 57.2 °F - 35.6 °F 44% 30.03 in 10.0 mi Calm Calm - N/A   Clear
11:10 PM 55.4 °F - 35.6 °F 47% 30.03 in 10.0 mi Calm Calm - N/A   Clear
11:30 PM 59.0 °F - 37.4 °F 45% 30.03 in 10.0 mi East 4.6 mph - N/A   Clear
11:50 PM 55.4 °F - 37.4 °F 51% 30.02 in 10.0 mi ESE 5.8 mph - N/A   Clear